Location: Barcelona
(41.3830°N, 2.1830°E)
Time: 06:01:33
(UTC+01:00)

ISS - Pass Details

Date: 01 December 2020
Orbit: 418 x 420 km, 51.6° (Epoch: 04 December)

Event Time Altitude Azimuth Distance (km) Brightness Sun altitude
Rises 19:01:41 0° 308° (NW) 2,365 0.6 -18.1°
Reaches altitude 10° 19:04:18 10° 329° (NNW) 1,499 -0.7 -18.6°
Enters shadow 19:05:53 16° 356° (N) 1,177 -1.6 -18.9°
